Flag for Canada

Past Weather in Regina, Saskatchewan, Canada — Yesterday and Last 2 Weeks

Now
64 °F

Sprinkles. Partly sunny.


Feels Like: 64 °F
Forecast: 71 / 49 °F
Wind: 20 mph from West

Location: Regina Weather Station

Current Time: Jul 13, 2020 at 6:28:41 pm

Latest Report: Jul 13, 2020 at 5:10 pm


Visibility: 12 mi

Pressure: 29.77 "Hg (27.82 "Hg at 577m altitude)

Humidity: 60%

Dew Point: 50 °F

Location of ReginaLocation

Past Weather in Regina — Graph

°F

Regina Temperature Yesterday

Maximum temperature yesterday: 81 °F (at 4:00 pm)
Minimum temperature yesterday: 55 °F (at 4:00 am)
Average temperature yesterday: 68 °F

High & Low Weather Summary for the Past Weeks

 TemperatureHumidityPressure
High86 °F (Jul 3, 6:00 pm)100% (Jun 29, 12:00 am)30.15 "Hg (Jun 29, 12:00 am)
Low48 °F (Jul 6, 4:00 am)28% (Jul 3, 7:50 pm)29.51 "Hg (Jul 8, 11:27 pm)
Average65 °F78%29.84 "Hg
* Reported Jun 28 5:00 pm — Jul 13 5:10 pm, Regina. Weather by CustomWeather, © 2020

Note: Actual official high and low records may vary slightly from our data, if they occured in-between our weather recording intervals... More about our weather records

Regina Weather History for the Previous 24 Hours

Scroll right to see more
 ConditionsComfort  
Time TempWeatherWind HumidityBarometerVisibility
5:10 pm
Mon, Jul 13
64 °FSprinkles. Partly sunny.20 mph60%29.77 "Hg12 mi
4:00 pm66 °FBroken clouds.21 mph60%29.76 "Hg15 mi
3:00 pm64 °FScattered clouds.18 mph64%29.77 "Hg15 mi
2:30 pm63 °FBroken clouds.16 mph73%29.79 "Hg15 mi
2:00 pm59 °FSprinkles. Broken clouds.16 mph82%29.80 "Hg15 mi
1:16 pm63 °FThunderstorms. Mostly cloudy.23 mph64%29.75 "Hg15 mi
12:00 pm68 °FPartly sunny.17 mph56%29.74 "Hg15 mi
11:00 am66 °FPartly sunny.15 mph64%29.74 "Hg15 mi
10:00 am64 °FPartly sunny.15 mph73%29.74 "Hg15 mi
9:00 am63 °FPassing clouds.13 mph73%29.74 "Hg15 mi
8:00 am61 °FPassing clouds.12 mph77%29.73 "Hg15 mi
7:00 am57 °FPassing clouds.9 mph88%29.74 "Hg15 mi
6:00 am55 °FPassing clouds.10 mph100%29.73 "Hg15 mi
5:00 am54 °FPassing clouds.7 mph100%29.70 "Hg15 mi
4:00 am55 °FPassing clouds.7 mph100%29.70 "Hg15 mi
3:00 am57 °FOvercast.5 mph94%29.70 "Hg15 mi
2:00 am61 °FOvercast.9 mph88%29.71 "Hg15 mi
1:00 am63 °FOvercast.12 mph88%29.70 "Hg15 mi
12:00 am63 °FOvercast.9 mph88%29.69 "Hg15 mi
11:00 pm
Sun, Jul 12
63 °FPassing clouds.6 mph88%29.67 "Hg15 mi
10:00 pm64 °FPassing clouds.5 mph88%29.67 "Hg15 mi
9:00 pm66 °FBroken clouds.8 mph78%29.66 "Hg15 mi
8:00 pm72 °FPartly sunny.8 mph78%29.66 "Hg15 mi
7:00 pm73 °FPartly sunny.10 mph78%29.68 "Hg15 mi
6:00 pm75 °FPartly sunny.12 mph78%29.69 "Hg15 mi
Weather by CustomWeather, © 2020

See weather overview